TimeEST,TemperatureF,Dew PointF,Humidity,Sea Level PressureIn,VisibilityMPH,Wind Direction,Wind SpeedMPH,Gust SpeedMPH,PrecipitationIn,Events,Conditions,WindDirDegrees,DateUTC
12:52 AM,37.0,33.1,86,29.81,10.0,West,5.8,-,N/A,,Overcast,280,2012-12-11 05:52:00
1:52 AM,37.0,33.1,86,29.81,8.0,West,5.8,-,N/A,,Overcast,280,2012-12-11 06:52:00
2:52 AM,36.0,33.1,89,29.83,10.0,NW,6.9,-,N/A,,Overcast,310,2012-12-11 07:52:00
3:11 AM,35.6,32.0,87,29.84,1.8,NW,6.9,-,N/A,,Overcast,310,2012-12-11 08:11:00
3:24 AM,35.6,33.8,93,29.85,0.8,NW,5.8,-,N/A,,Mist,310,2012-12-11 08:24:00
3:29 AM,35.6,33.8,93,29.85,1.2,NNW,6.9,-,N/A,,Overcast,330,2012-12-11 08:29:00
3:36 AM,35.6,33.8,93,29.85,3.0,NW,6.9,-,N/A,,Overcast,310,2012-12-11 08:36:00
3:52 AM,36.0,33.1,89,29.83,5.0,WNW,6.9,-,N/A,,Overcast,290,2012-12-11 08:52:00
4:07 AM,35.6,32.0,87,29.85,10.0,WNW,6.9,-,N/A,,Overcast,300,2012-12-11 09:07:00
4:18 AM,35.6,32.0,87,29.85,10.0,WNW,6.9,-,N/A,,Overcast,290,2012-12-11 09:18:00
4:39 AM,35.6,32.0,87,29.86,4.0,WNW,4.6,-,0.00,Snow,Light Snow,300,2012-12-11 09:39:00
4:52 AM,35.1,32.0,89,29.86,4.0,WNW,4.6,-,0.00,Snow,Light Snow,300,2012-12-11 09:52:00
5:18 AM,35.6,32.0,87,29.88,5.0,NW,5.8,-,0.00,Snow,Light Snow,310,2012-12-11 10:18:00
5:52 AM,35.1,32.0,89,29.88,9.0,WNW,5.8,-,0.00,,Overcast,300,2012-12-11 10:52:00
6:37 AM,33.8,30.2,87,29.90,2.0,WNW,5.8,-,0.00,Snow,Light Snow,300,2012-12-11 11:37:00
6:52 AM,34.0,30.9,89,29.91,1.8,WNW,5.8,-,0.01,Snow,Light Snow,300,2012-12-11 11:52:00
7:02 AM,33.8,30.2,87,29.92,2.5,WNW,9.2,-,0.00,Snow,Light Snow,300,2012-12-11 12:02:00
7:07 AM,33.8,30.2,87,29.93,3.0,WNW,6.9,-,0.00,Snow,Light Snow,300,2012-12-11 12:07:00
7:52 AM,34.0,28.9,82,29.94,10.0,WNW,6.9,-,0.00,,Overcast,290,2012-12-11 12:52:00
8:52 AM,33.1,28.9,85,29.98,10.0,WNW,5.8,-,0.00,,Overcast,300,2012-12-11 13:52:00
9:24 AM,33.8,28.4,81,29.97,2.5,WNW,5.8,-,0.00,Snow,Light Snow,300,2012-12-11 14:24:00
9:27 AM,33.8,28.4,81,29.98,4.0,WNW,4.6,-,0.00,Snow,Light Snow,290,2012-12-11 14:27:00
9:32 AM,33.8,28.4,81,29.98,2.5,NW,5.8,-,0.00,Snow,Light Snow,320,2012-12-11 14:32:00
9:38 AM,33.8,28.4,81,29.99,1.0,WNW,6.9,-,0.00,Snow,Light Snow,300,2012-12-11 14:38:00
9:43 AM,33.8,28.4,81,29.99,1.8,WNW,6.9,-,0.00,Snow,Light Snow,300,2012-12-11 14:43:00
9:45 AM,33.8,28.4,81,29.99,2.5,NW,8.1,-,0.00,Snow,Light Snow,310,2012-12-11 14:45:00
9:48 AM,33.8,28.4,81,30.00,7.0,West,5.8,-,0.00,Snow,Light Snow,280,2012-12-11 14:48:00
9:52 AM,33.1,28.0,82,30.03,9.0,West,9.2,-,0.00,,Overcast,270,2012-12-11 14:52:00
10:03 AM,33.8,28.4,81,30.00,10.0,WNW,8.1,-,N/A,,Overcast,290,2012-12-11 15:03:00
10:35 AM,33.8,28.4,81,30.01,1.5,WNW,10.4,-,0.00,Snow,Light Snow,300,2012-12-11 15:35:00
10:43 AM,32.0,28.4,87,30.01,0.8,WNW,8.1,-,0.00,Snow,Light Snow,300,2012-12-11 15:43:00
10:50 AM,33.8,28.4,81,30.02,1.2,WNW,10.4,-,0.00,Snow,Light Snow,300,2012-12-11 15:50:00
10:52 AM,33.1,28.0,82,30.06,1.5,NW,8.1,-,0.00,Snow,Light Snow,310,2012-12-11 15:52:00
10:55 AM,33.8,28.4,81,30.02,3.0,NW,6.9,-,0.00,Snow,Light Snow,310,2012-12-11 15:55:00
11:45 AM,33.8,28.4,81,30.01,10.0,NW,8.1,-,0.00,,Overcast,310,2012-12-11 16:45:00
11:52 AM,34.0,27.0,75,30.04,10.0,WNW,6.9,-,0.00,,Overcast,300,2012-12-11 16:52:00
12:21 PM,33.8,26.6,75,30.01,10.0,NW,6.9,-,N/A,,Overcast,320,2012-12-11 17:21:00
12:52 PM,33.1,26.1,75,30.04,10.0,NW,6.9,-,N/A,,Overcast,310,2012-12-11 17:52:00
1:43 PM,32.0,26.6,80,30.01,5.0,NW,5.8,-,0.00,Snow,Light Snow,310,2012-12-11 18:43:00
1:52 PM,33.1,26.1,75,30.05,8.0,WNW,8.1,-,0.00,,Overcast,300,2012-12-11 18:52:00
2:16 PM,32.0,24.8,75,30.01,10.0,Variable,5.8,-,N/A,,Overcast,0,2012-12-11 19:16:00
2:52 PM,32.0,25.0,75,30.07,10.0,WNW,3.5,-,N/A,,Overcast,290,2012-12-11 19:52:00
3:52 PM,30.9,24.1,76,30.09,10.0,WNW,5.8,-,N/A,,Overcast,290,2012-12-11 20:52:00
4:52 PM,30.9,24.1,76,30.12,10.0,NW,5.8,-,N/A,,Overcast,320,2012-12-11 21:52:00
5:52 PM,30.0,23.0,75,30.14,10.0,Calm,Calm,-,N/A,,Overcast,0,2012-12-11 22:52:00
6:52 PM,30.0,23.0,75,30.16,10.0,NNW,3.5,-,N/A,,Overcast,330,2012-12-11 23:52:00
7:52 PM,30.0,23.0,75,30.17,10.0,WNW,4.6,-,N/A,,Overcast,290,2012-12-12 00:52:00
8:52 PM,30.0,21.9,72,30.18,10.0,Calm,Calm,-,N/A,,Overcast,0,2012-12-12 01:52:00
9:52 PM,28.9,21.9,75,30.19,10.0,Calm,Calm,-,N/A,,Overcast,0,2012-12-12 02:52:00
10:52 PM,28.9,21.9,75,30.21,10.0,Calm,Calm,-,N/A,,Overcast,0,2012-12-12 03:52:00
11:31 PM,28.4,21.2,74,30.14,10.0,Calm,Calm,-,N/A,,Scattered Clouds,0,2012-12-12 04:31:00
11:52 PM,28.0,21.9,78,30.20,10.0,Calm,Calm,-,N/A,,Clear,0,2012-12-12 04:52:00